Regional Weather Roundup
Issued by NWS

Home | Current Version | Previous Version | Graphics & Text | Print | Product List | Glossary On
Versions: 1 2 3 4 5 6 7 8 9 10 11 12 13 14 15 16 17 18 19 20 21 22 23 24 25 26 27
000
ASUS45 KPSR 211010
RWRAZ

ARIZONA HOURLY REGIONAL WEATHER ROUNDUP
NATIONAL WEATHER SERVICE PHOENIX AZ
300 AM MST SAT OCT 21 2017

NOTE: FAIR INDICATES FEW OR NO CLOUDS BELOW 12,000 FEET WITH NO
SIGNIFICANT WEATHER AND/OR OBSTRUCTIONS TO VISIBILITY.

AZZ001>003-036-211100-
NORTHWEST ARIZONA

CITY           SKY/WX    TMP DP  RH WIND       PRES   REMARKS
BULLHEAD CITY  CLEAR     72  16  12 N22G30    29.86S
KINGMAN        CLEAR     49  17  28 E10       29.95R
$$

AZZ004>008-015-016-018-211100-
NORTH CENTRAL ARIZONA

CITY           SKY/WX    TMP DP  RH WIND       PRES   REMARKS
GRAND CANYON   CLEAR     34  29  82 NE5       30.02R WCI  30
WILLIAMS       CLEAR     41  37  87 W3        30.02R
PRESCOTT       CLEAR     45  39  79 S7        29.96S
FLAGSTAFF      CLEAR     36  34  92 CALM      30.03R
PAYSON         CLEAR     48  36  61 CALM      29.98S
PAGE           CLEAR     51  18  27 W9        29.96R
$$

AZZ009>014-017-211100-
NORTHEAST ARIZONA

CITY           SKY/WX    TMP DP  RH WIND       PRES   REMARKS
WINSLOW        CLEAR     48  38  68 SW9       29.95S
SAINT JOHNS    CLEAR     50  35  56 CALM      29.97S
WINDOW ROCK    MOCLDY    48  37  65 S5        29.98S
SHOW LOW       CLEAR     46  37  71 S13       30.01F
$$

AZZ540-542>544-546-548-211100-
GREATER PHOENIX AREA

CITY           SKY/WX    TMP DP  RH WIND       PRES   REMARKS
PHOENIX        PTCLDY    69  46  43 N6        29.82R
BUCKEYE        CLOUDY    61  43  51 NW6       29.85R
LUKE AFB       CLEAR     66  46  49 SW13      29.82R
DEER VALLEY    CLOUDY    64  45  49 CALM      29.84R
SCOTTSDALE     CLEAR     67  44  43 NW3       29.86R
MESA-GATEWAY   CLEAR     64  43  45 SW9       29.85R
$$

AZZ539-553-211100-
SOUTHWEST MARICOPA COUNTY AND PINAL COUNTY

CITY           SKY/WX    TMP DP  RH WIND       PRES   REMARKS
CASA GRANDE    NOT AVBL
$$

AZZ503-504-507>509-211100-
SOUTHEAST ARIZONA

CITY           SKY/WX    TMP DP  RH WIND       PRES   REMARKS
TUCSON         CLEAR     63  41  44 E3        29.90S
DAVIS-MONTHAN  CLEAR     58  39  48 SW3       29.89R
NOGALES        CLEAR     55  43  63 CALM      29.93F
SIERRA VISTA   CLEAR     61  43  51 W8        29.97S
DOUGLAS        CLEAR     62  47  57 SW10      29.94F
SAFFORD        CLEAR     67  42  40 NW12      29.86R
$$

AZZ532-211100-
SOUTHWEST ARIZONA

CITY           SKY/WX    TMP DP  RH WIND       PRES   REMARKS
YUMA           PTCLDY    65  46  50 NW8       29.84S
$$

CAZ041-043-047-048-061-525>527-560>570-211100-
SOUTHERN CALIFORNIA

CITY           SKY/WX    TMP DP  RH WIND       PRES   REMARKS
DOWNTOWN L.A.  MOCLDY    63  45  51 CALM      29.98R
L.A. AIRPORT   CLEAR     63  38  39 N7        29.99R
SAN DIEGO      PTCLDY    64  54  69 SE7       30.00S
BURBANK        CLEAR     61  31  32 NW5       29.99R
ONTARIO        PTCLDY    58  54  86 CALM      29.98S
RIVERSIDE      PTCLDY    59  54  83 CALM      29.99S
PALM SPRINGS   PTCLDY    70  46  42 NW14G20   29.88S
EL CENTRO NAS  CLEAR     62  41  46 W8        29.86S
IMPERIAL       CLEAR     62  44  51 W9        29.84F
BLYTHE         MOCLDY    64  39  39 NW7       29.86R
NEEDLES        CLEAR     64  34  32 CALM      29.87R
$$

NVZ020-UTZ003-211100-
SOUTHERN NEVADA-UTAH

CITY           SKY/WX    TMP DP  RH WIND       PRES   REMARKS
LAS VEGAS      CLEAR     64  10  12 N10G23    29.97R
SALT LAKE CITY MOCLDY    42  30  62 SE5       30.08R
$$

NMZ009-TXZ055-211100-
NEW MEXICO-WEST TEXAS

CITY           SKY/WX    TMP DP  RH WIND       PRES   REMARKS
ALBUQUERQUE    CLOUDY    60  36  40 W15       29.90F
EL PASO        PTCLDY    69  46  43 SW10      29.88F
$$


........................KEY........................
SKY/WX - SKY CONDITION/WEATHER
TMP    - TEMPERATURE IN FAHRENHEIT
DP     - DEW POINT IN FAHRENHEIT
RH     - RELATIVE HUMIDITY IN PERCENT
WIND   - DIRECTION AND SPEED IN MILES PER HOUR (MPH)
VRB    - VARIABLE WIND DIRECTION
PRES   - MEAN SEA LEVEL PRESSURE IN INCHES OF MERCURY
         F - FALLING PRESSURE   R - RISING PRESSURE
         S - STEADY PRESSURE
VSB    - VISIBILITY IN MILES
HX     - HEAT INDEX IN FAHRENHEIT
WCI    - WIND CHILL INDEX IN FAHRENHEIT
TC     - TEMPERATURE IN CELSIUS WHICH IS ALSO KNOWN AS
         TEMPERATURE IN CENTIGRADE
AFB    - AIR FORCE BASE
         LUKE AFB IS LUKE AIR FORCE BASE
         DAVIS-MONTHAN IS DAVIS-MONTHAN AIR FORCE BASE
NAS    - NAVAL AIR STATION
         EL CENTRO NAS IS EL CENTRO NAVAL AIR STATION
N/A    - NOT AVAILABLE





USA.gov is the U.S. government's official web portal to all federal, state and local government web resources and services.